Regional Weather Roundup
Issued by NWS

Home | Current Version | Previous Version | Graphics & Text | Print | Product List | Glossary On
Versions: 1 2 3 4 5 6 7 8 9 10 11 12 13 14 15 16 17 18 19 20 21 22 23 24 25 26 27 28 29 30 31 32 33 34 35 36 37 38 39 40 41 42 43 44 45 46 47 48 49 50
000
ASUS43 KDTX 270401
RWRMI
MICHIGAN HOURLY REGIONAL WEATHER ROUNDUP
NATIONAL WEATHER SERVICE DETROIT/PONTIAC MI
1200 AM EDT WED MAY 27 2015

NOTE: "FAIR" INDICATES FEW OR NO CLOUDS BELOW 12,000 FEET WITH NO
SIGNIFICANT WEATHER AND/OR OBSTRUCTION TO VISIBILITY.

MIZ047>049-052>055-059>063-066>070-074>076-081>083-270500-
SOUTHEAST LOWER MICHIGAN

CITY           SKY/WX    TMP DP  RH WIND       PRES   REMARKS
ADRIAN         MOCLDY    69  65  86 SW15G21   29.93R
ALMA           PTCLDY    66  63  90 S6        29.83F
ANN ARBOR      MOCLDY    68  65  90 S5        29.91S
BAD AXE        CLOUDY    69  63  80 S12       29.85S
CARO           MOCLDY    67  63  87 S8        29.85R
DETROIT        CLOUDY    70  65  84 S10       29.92R
FLINT          MOCLDY    72  66  81 S10G20    29.87S
GROSSE ILE     MOCLDY    70  64  83 S12       29.92R
HILLSDALE      MOCLDY    69  68  95 SW6       29.93R
HOWELL         MOCLDY    68  66  93 S9        29.88S

CITY           SKY/WX    TMP DP  RH WIND       PRES   REMARKS
JACKSON        MOCLDY    69  64  84 SW14      29.90R
LAMBERTVILLE   MOCLDY    72  64  78 S9        29.93S
LANSING        PTCLDY    68  62  81 SW10      29.87S
LAPEER         MOCLDY    68  65  90 S10G17    29.88S
MASON          MOCLDY    65  64  93 SW5       29.89S
MONROE         MOCLDY    70  66  88 S10       29.91S
MT. CLEMENS    MOCLDY    68  65  91 S7        29.90R
PONTIAC        MOCLDY    68  66  93 S10       29.89S
PORT HOPE        N/A    N/A N/A N/A VRB7      29.81S
PORT HURON     PTCLDY    66  64  94 S9        29.92R
TRI CITIES     MOCLDY    70  62  76 S10       29.83F
MIDLAND        FAIR      67  62  82 S9        29.81F
TROY           MOCLDY    69  67  93 S6        29.93R
SAGINAW HB     MOCLDY    70  63  78 S13       29.83F
$$
MIZ043>046-050>051-056>058-064>065-071>073-077>080-270500-
SOUTHWEST LOWER MICHIGAN

CITY           SKY/WX    TMP DP  RH WIND       PRES   REMARKS
BATTLE CREEK   PTCLDY    68  60  75 SW14      29.90R
BENTON HARBOR  MOCLDY    68  60  75 SW10G20   29.88R
BIG RAPIDS     CLEAR     65  60  82 SW10G18   29.80S
COLDWATER      PTCLDY    67  59  74 SW9G16    29.92R
FREMONT        FAIR      64  59  86 SW10      29.80S
HOLLAND        MOCLDY    67  59  75 SW16G29   29.85S
GRAND RAPIDS   MOCLDY    68  60  75 SW14G21   29.84S
IONIA          FAIR      69  62  78 SW12      29.84S
KALAMAZOO      PTCLDY    68  59  73 SW15      29.89S
LUDINGTON      CLEAR     64  58  80 SW22G30   29.75S
MARSHALL       PTCLDY    68  61  77 SW12G17   29.90R
MOUNT PLEASANT MOCLDY    67  63  85 S9        29.81S
MUSKEGON       PTCLDY    62  56  80 SW16G25   29.82R
SOUTH HAVEN    MOCLDY    69  60  73 SW15G21   29.87S
$$
MIZ016>042-270500-
NORTHERN LOWER MICHIGAN

CITY           SKY/WX    TMP DP  RH WIND       PRES   REMARKS
ALPENA         CLOUDY    68  66  93 S10       29.76S
BEAVER ISLAND  CLOUDY    62  61  97 S3        29.70F FOG
BELLAIRE       PTCLDY    65  62  89 CALM      29.72F
CADILLAC       MOCLDY    64  61  89 S9G17     29.77S
CHARLEVOIX     CLEAR     66  64  94 S8        29.74S
FRANKFORT      CLOUDY    68  56  67 S16G24    29.72R
GAYLORD        MOCLDY    66  65  96 S10       29.76S
HARBOR SPRINGS MOCLDY    65  64  94 CALM      29.72F
HOUGHTON LAKE  CLOUDY    66  62  87 S12       29.78F
MANISTEE       PTCLDY    64  57  77 S12G17    29.74S
OSCODA         MOCLDY    67  65  93 S12       29.79S
PELLSTON       PTCLDY    64  63  96 CALM      29.72F FOG
ROGERS CITY    CLOUDY    67  66  96 S7        29.75S
TRAVERSE CITY  CLEAR     67  61  81 VRB6      29.70S
$$
MIZ007>008-015-270500-
EASTERN UPPER MICHIGAN

CITY           SKY/WX    TMP DP  RH WIND       PRES   REMARKS
KINROSS        CLOUDY    63  63 100 SE10      29.72F
MACKINAC ISLAN CLOUDY    60  60 100 SE7       29.71F FOG
NEWBERRY       LGT RAIN  62  62  99 SE7       29.70S
S. S. MARIE    CLOUDY    61  59  93 SE9       29.72F
$$
MIZ004>006-011>014-085-270500-
CENTRAL UPPER MICHIGAN

CITY           SKY/WX    TMP DP  RH WIND       PRES   REMARKS
MANISTIQUE     CLOUDY    54  53  97 S3        29.69F FOG
ESCANABA       CLOUDY    54  50  87 SE8       29.65F VSB 3/4
MENOMINEE      CLOUDY    54  50  87 E5        29.63F
SAWYER-GWINN   HVY RAIN  48  47  97 N7        29.69F VSB 1/2
$$
MIZ001>003-009>011-084-270500-
WESTERN UPPER MICHIGAN

CITY           SKY/WX    TMP DP  RH WIND       PRES   REMARKS
IRON MOUNTAIN  LGT RAIN  59  58  96 NE9       29.64F FOG
HOUGHTON       LGT RAIN  52  51  97 NW5       29.72F
COPPER HARBOR    N/A     40  39  97 CALM      29.74S
IRONWOOD       CLOUDY    46  46 100 W5        29.73S VSB 1
$$

ABBREVIATIONS USED IN REMARKS
   TC - TEMPERATURE IN CELSIUS
  WCI - WIND CHILL INDEX
   HX - HEAT INDEX
  VSB - VISIBILITY



USA.gov is the U.S. government's official web portal to all federal, state and local government web resources and services.